Stations météo

réclame
Mon MeteoGroup
F3, Pays-Bas (6239): Température de l'air & dewpoint: 15.08.2018 06:00:00 - 21.08.2018 06:00:00 (CEST)F3, Pays-Bas (6239): Vitesse du vent & gusts: 15.08.2018 06:00:00 - 21.08.2018 06:00:00 (CEST)F3, Pays-Bas (6239): Direction du vent: 15.08.2018 06:00:00 - 21.08.2018 06:00:00 (CEST)F3, Pays-Bas (6239): reduced air pressure: 15.08.2018 06:00:00 - 21.08.2018 06:00:00 (CEST)F3, Pays-Bas (6239): visibility: 15.08.2018 06:00:00 - 21.08.2018 06:00:00 (CEST)
Date & Time tt [°C] td [°C] ff [km/h] ff [knt] fx [km/h] fx [knt] dd ppp [hPa] vv [km]
21.08.2018 06:00:00 15,9 12,3 8 4 7 4 E 1020,5 13
21.08.2018 05:00:00 16,7 11,9 4 2 7 4 - 1020,4 47
21.08.2018 04:00:00 16,5 11,9 5 3 7 4 NE 1020,6 49
21.08.2018 03:00:00 16,5 11,8 4 2 7 4 - 1020,5 49
21.08.2018 02:00:00 16,4 11,4 2 1 7 4 - 1020,5 49
21.08.2018 01:00:00 16,4 11,2 2 1 7 4 - 1020,2 50
21.08.2018 00:00:00 16,4 11,1 4 2 7 4 - 1020,1 50
20.08.2018 23:00:00 16,4 11,0 8 4 11 6 NNW 1020,3 50
20.08.2018 22:00:00 16,5 11,4 8 4 11 6 NW 1020,1 50
20.08.2018 21:00:00 16,6 11,9 9 5 14 8 - 1019,8 49
20.08.2018 20:00:00 16,6 12,7 15 8 18 10 NNW 1019,5 40
20.08.2018 19:00:00 16,8 13,6 15 8 18 10 NNW 1019,4 35
20.08.2018 18:00:00 17,1 12,8 13 7 14 8 WNW 1019,5 40
20.08.2018 17:00:00 17,4 12,4 9 5 29 16 - 1019,4 42
20.08.2018 16:00:00 17,4 11,9 9 5 11 6 WNW 1019,3 37
20.08.2018 15:00:00 17,4 11,8 11 6 11 6 NW 1019,5 44
20.08.2018 14:00:00 17,2 11,7 11 6 14 8 WNW 1019,2 38
20.08.2018 13:00:00 17,1 11,8 13 7 18 10 NW 1018,9 40
20.08.2018 12:00:00 17,1 11,6 15 8 22 12 NW 1018,6 42
20.08.2018 11:00:00 17,0 11,6 21 11 25 14 NW 1018,2 41
20.08.2018 10:00:00 17,0 12,5 21 11 29 16 NNW 1017,7 37
20.08.2018 09:00:00 17,3 13,4 26 14 25 14 NW 1017,1 35
20.08.2018 08:00:00 17,3 13,5 26 14 25 14 NW 1016,6 48
20.08.2018 07:00:00 15,9 14,6 34 18 32 18 NW 1016,1 7
20.08.2018 06:00:00 17,1 15,6 26 14 32 18 NNW 1015,8 35
20.08.2018 05:00:00 17,9 13,9 28 15 32 18 NW 1015,5 48
20.08.2018 04:00:00 18,0 14,6 28 15 29 16 NNW 1015,3 50
20.08.2018 03:00:00 17,8 15,9 28 15 32 18 NW 1014,8 38
20.08.2018 02:00:00 18,0 15,5 29 16 32 18 NNW 1014,1 50
20.08.2018 01:00:00 17,8 15,5 29 16 36 19 NW 1013,8 46
20.08.2018 00:00:00 18,1 16,7 31 17 32 18 WNW 1013,5 18
19.08.2018 23:00:00 18,2 16,7 35 19 36 19 W 1013,3 22
19.08.2018 22:00:00 18,4 16,7 35 19 36 19 W 1012,7 19
19.08.2018 21:00:00 18,5 16,7 37 20 40 21 W 1012,4 16
19.08.2018 20:00:00 18,6 16,5 42 23 47 25 WSW 1012,2 16
19.08.2018 19:00:00 18,7 16,8 50 27 50 27 WSW 1012,1 14
19.08.2018 18:00:00 18,5 16,7 46 25 47 25 WSW 1012,1 13
19.08.2018 17:00:00 17,6 16,9 42 23 50 27 SW 1012,6 10
19.08.2018 16:00:00 17,3 16,5 55 30 58 31 WSW 1012,7 8
19.08.2018 15:00:00 18,2 16,5 46 25 50 27 SW 1012,9 17
19.08.2018 14:00:00 17,3 16,6 48 26 50 27 SW 1013,4 9
19.08.2018 13:00:00 17,8 17,2 44 24 43 23 SSW 1014,1 2,5
19.08.2018 12:00:00 18,5 17,2 34 18 36 19 SSW 1014,6 16
19.08.2018 11:00:00 18,7 17,2 34 18 32 18 SSW 1015,0 18
19.08.2018 10:00:00 18,7 17,1 29 16 32 18 SW 1015,1 15
19.08.2018 09:00:00 18,6 17,1 31 17 32 18 SSW 1015,5 15
19.08.2018 08:00:00 18,6 17,0 29 16 32 18 SSW 1015,6 15
19.08.2018 07:00:00 18,7 16,7 34 18 32 18 SW 1015,8 17
19.08.2018 06:00:00 18,8 16,4 34 18 32 18 SW 1016,0 18
19.08.2018 05:00:00 18,8 16,6 29 16 32 18 SW 1016,3 17
19.08.2018 04:00:00 18,9 16,6 35 19 36 19 WSW 1017,0 17
19.08.2018 03:00:00 18,9 16,5 37 20 36 19 SW 1017,0 17
19.08.2018 02:00:00 18,8 16,4 35 19 36 19 WSW 1017,3 17
19.08.2018 01:00:00 18,8 16,4 37 20 40 21 SW 1017,5 18
19.08.2018 00:00:00 18,7 16,0 39 21 40 21 SW 1017,6 21
18.08.2018 23:00:00 18,7 15,8 39 21 36 19 WSW 1017,7 19
18.08.2018 22:00:00 18,6 15,8 39 21 40 21 WSW 1018,0 20
18.08.2018 21:00:00 18,5 15,5 42 23 43 23 WSW 1017,5 20
18.08.2018 20:00:00 18,4 15,5 42 23 43 23 WSW 1016,9 17
18.08.2018 19:00:00 18,4 15,6 44 24 43 23 SW 1016,6 16
18.08.2018 18:00:00 18,4 15,1 44 24 47 25 WSW 1016,4 15
18.08.2018 17:00:00 18,3 14,8 48 26 47 25 WSW 1016,8 19
18.08.2018 16:00:00 18,2 14,5 52 28 50 27 WSW 1016,6 18
18.08.2018 15:00:00 18,2 14,5 46 25 50 27 WSW 1016,2 19
18.08.2018 14:00:00 18,0 14,9 52 28 50 27 WSW 1016,4 17
18.08.2018 13:00:00 17,8 14,9 52 28 50 27 WSW 1015,9 16
18.08.2018 12:00:00 17,8 14,9 50 27 50 27 WSW 1016,0 16
18.08.2018 11:00:00 17,6 14,5 48 26 50 27 SW 1015,7 17
18.08.2018 10:00:00 17,7 14,7 44 24 43 23 SW 1015,7 17
18.08.2018 09:00:00 17,6 14,5 46 25 47 25 SW 1015,8 20
18.08.2018 08:00:00 17,6 13,8 46 25 43 23 WSW 1015,5 21
18.08.2018 07:00:00 17,7 13,8 46 25 47 25 WSW 1015,5 27
18.08.2018 06:00:00 17,9 13,6 46 25 47 25 WSW 1015,4 30
18.08.2018 05:00:00 17,9 12,8 48 26 47 25 WSW 1015,5 41
18.08.2018 04:00:00 18,1 12,3 48 26 50 27 WSW 1015,6 42
18.08.2018 03:00:00 18,3 12,3 50 27 47 25 SW 1016,0 42
18.08.2018 02:00:00 18,2 12,0 46 25 47 25 SW 1016,2 43
18.08.2018 01:00:00 17,9 13,7 46 25 43 23 SW 1016,3 38
18.08.2018 00:00:00 17,8 12,1 44 24 43 23 SW 1016,7 43
17.08.2018 23:00:00 17,6 11,6 39 21 40 21 SW 1016,8 43
17.08.2018 22:00:00 17,2 11,4 34 18 36 19 SW 1017,0 43
17.08.2018 21:00:00 17,0 11,2 31 17 32 18 WSW 1017,0 45
17.08.2018 20:00:00 17,2 11,2 34 18 36 19 WSW 1017,0 39
17.08.2018 19:00:00 17,2 10,6 34 18 32 18 WSW 1017,0 36
17.08.2018 18:00:00 17,2 11,0 35 19 36 19 WSW 1017,0 36
17.08.2018 17:00:00 17,2 11,1 37 20 36 19 WSW 1017,0 25
17.08.2018 16:00:00 17,2 10,8 39 21 36 19 WSW 1016,9 34
17.08.2018 15:00:00 17,1 10,5 39 21 40 21 WSW 1016,9 33
17.08.2018 14:00:00 16,9 10,9 41 22 40 21 WSW 1016,8 34
17.08.2018 13:00:00 17,0 12,2 35 19 36 19 WSW 1016,5 27
17.08.2018 12:00:00 17,1 11,0 34 18 36 19 WSW 1016,3 32
17.08.2018 11:00:00 17,0 10,3 34 18 36 19 WSW 1015,9 35
17.08.2018 10:00:00 17,0 12,0 39 21 36 19 WSW 1015,4 34
17.08.2018 09:00:00 16,8 11,7 37 20 40 21 WSW 1014,9 35
17.08.2018 08:00:00 17,0 10,7 39 21 36 19 WSW 1014,5 41
17.08.2018 07:00:00 16,9 11,1 39 21 40 21 WSW 1014,0 36
17.08.2018 06:00:00 17,1 10,9 41 22 40 21 WSW 1013,5 45
17.08.2018 05:00:00 17,3 10,9 41 22 43 23 WSW 1013,3 45
17.08.2018 04:00:00 17,7 9,8 42 23 43 23 W 1012,7 48
17.08.2018 03:00:00 17,8 11,2 39 21 40 21 WSW 1013,0 46
17.08.2018 02:00:00 17,4 12,0 34 18 36 19 WSW 1012,9 26
17.08.2018 01:00:00 17,1 11,9 34 18 32 18 WSW 1012,9 28
17.08.2018 00:00:00 17,0 11,7 31 17 32 18 WSW 1012,7 25
16.08.2018 23:00:00 16,9 11,1 31 17 40 21 WSW 1012,3 28
16.08.2018 22:00:00 17,2 11,1 39 21 43 23 WSW 1011,6 31
16.08.2018 21:00:00 16,9 12,4 29 16 47 25 WSW 1011,2 38
16.08.2018 20:00:00 15,8 14,2 54 29 54 29 WSW 1010,9 7
16.08.2018 19:00:00 17,6 14,6 46 25 47 25 SW 1010,5 18
16.08.2018 18:00:00 18,0 14,7 46 25 47 25 SW 1010,3 16
16.08.2018 17:00:00 17,8 15,2 42 23 43 23 SW 1010,4 45
16.08.2018 16:00:00 18,1 13,9 41 22 40 21 SW 1010,1 43
16.08.2018 15:00:00 17,8 14,0 35 19 36 19 SW 1009,7 38
16.08.2018 14:00:00 17,0 14,6 46 25 47 25 W 1009,7 31
16.08.2018 13:00:00 17,5 16,5 50 27 50 27 SW 1009,4 9
16.08.2018 12:00:00 18,7 16,5 48 26 72 39 SSW 1009,3 15
16.08.2018 11:00:00 18,7 16,7 42 23 43 23 SSW 1009,7 15
16.08.2018 10:00:00 18,8 17,0 39 21 40 21 SSW 1010,0 13
16.08.2018 09:00:00 18,7 16,5 31 17 40 21 SW 1010,1 20
16.08.2018 08:00:00 18,6 16,4 37 20 40 21 SW 1010,2 22
16.08.2018 07:00:00 19,0 16,7 37 20 40 21 SW 1010,5 15
16.08.2018 06:00:00 19,0 17,1 39 21 40 21 SSW 1010,5 12
16.08.2018 05:00:00 18,8 17,4 39 21 40 21 SSW 1010,7 10
16.08.2018 04:00:00 18,9 17,3 42 23 43 23 SSW 1010,9 11
16.08.2018 03:00:00 18,8 17,4 44 24 43 23 SSW 1011,2 10
16.08.2018 02:00:00 19,0 17,3 42 23 43 23 SSW 1011,8 10
16.08.2018 01:00:00 18,9 16,9 46 25 50 27 SSW 1012,2 11
16.08.2018 00:00:00 18,8 16,9 48 26 47 25 SSW 1012,7 11
15.08.2018 23:00:00 18,7 16,8 46 25 47 25 SSW 1013,2 12
15.08.2018 22:00:00 18,5 16,5 46 25 47 25 SSW 1013,4 12
15.08.2018 21:00:00 18,4 15,6 42 23 43 23 SSW 1013,4 17
15.08.2018 20:00:00 18,5 15,9 41 22 40 21 SSW 1013,4 17
15.08.2018 19:00:00 18,6 15,7 39 21 40 21 SW 1013,7 18
15.08.2018 18:00:00 18,5 15,7 42 23 40 21 SW 1014,3 20
15.08.2018 17:00:00 18,5 16,3 42 23 61 33 SW 1014,4 16
15.08.2018 16:00:00 18,7 16,0 44 24 43 23 SW 1014,3 18
15.08.2018 15:00:00 18,9 16,5 39 21 40 21 SSW 1014,5 17
15.08.2018 14:00:00 18,8 16,5 39 21 40 21 SW 1014,5 18
15.08.2018 13:00:00 18,8 16,5 34 18 36 19 SW 1014,7 21
15.08.2018 12:00:00 18,7 16,0 34 18 36 19 SW 1014,5 30
15.08.2018 11:00:00 18,9 16,2 24 13 29 16 WSW 1014,6 32
15.08.2018 10:00:00 18,7 15,8 28 15 29 16 WSW 1014,2 30
15.08.2018 09:00:00 18,5 15,8 31 17 29 16 WSW 1013,9 34
15.08.2018 08:00:00 18,5 15,5 34 18 32 18 W 1013,7 39
15.08.2018 07:00:00 18,4 15,6 34 18 32 18 WSW 1013,5 33
15.08.2018 06:00:00 18,5 16,0 28 15 32 18 WSW 1013,5 29

tt = Température de l'air
td = dewpoint
ff = Vitesse du vent
fx = gusts
dd = Direction du vent
ppp = reduced air pressure
vv = visibility

stations d'obs. à proximité